Location: Bremen
(53.0793°N, 8.8017°E)
Time: 22:40:31
(UTC+01:00)

Explorer 7 - Pass Details

Date: 02 December 2021
Orbit: 483 x 674 km, 50.3° (Epoch: 17 January)

Event Time Altitude Azimuth Distance (km) Brightness Sun altitude
Rises 07:44:39 0° 233° (SW) 2,766 10.2 -4.9°
Reaches altitude 10° 07:47:04 10° 225° (SW) 1,835 9.4 -4.6°
Maximum altitude 07:50:54 36° 159° (SSE) 857 8.4 -4.1°
Drops below altitude 10° 07:54:32 10° 92° (E) 1,743 10.5 -3.6°
Sets 07:56:47 0° 83° (E) 2,606 11.2 -3.3°
